sat.trackr.live / text

‹ back to catalog

STARLINK-34860

NORAD 65357 · 2025-190G

PAYLOAD ACTIVE UNKNOWN

§ Identity

Operator
Country
US
Launch date
2025-08-28
Launch site
AFETR
Launch vehicle
Mass (kg)
RCS (m²)

Purposes: comms

External: N2YO · Heavens-Above · Gunter

§ Orbital elements

Epoch: 2026-09-20T12:42:00.311328Z

Period
93.85 min
Inclination
53.1600°
Eccentricity
0.0001435
Mean motion
15.34395715 rev/d
Perigee alt
461.7 km
Apogee alt
463.7 km
Semi-major
6,840.9 km
B*
7.6131e-4
RAAN
339.7943°
Arg perigee
82.5355°
Mean anomaly
277.5810°
Rev number
5,916

§ Raw data

STARLINK-348601 65357U 25190G   26263.52917027  .00025430  00000+0  76131-3 0  99992 65357  53.1600 339.7943 0001435  82.5355 277.5810 15.34395715 59166

JSON: /api/v1/satellites/65357 · /tle

For live sub-satellite position, see the globe view (requires WebGL).

§ Visibility from observer

Set your observer location to see the next 7 days of passes ≥ 10°. The values pass through the URL so the page stays shareable.

No JS? Fill the form by hand. The geolocation button needs JavaScript.